EW3721 Weather Reports


Display with metric or nautical units.
time (UTC)temp
F
wind
direction
speed
MPH
gust
MPH
rain 1hr
in
rain 24hr
in
rain mn
in
humidity
%
barometer
mb
20180821042144 67 123 0.0 2.0 0.00 0.00 0.00 84 1021.3
20180821041144 67 124 0.0 0.0 0.00 0.00 0.00 89 1021.4
20180821040145 68 124 0.0 0.0 0.00 0.00 0.00 91 1021.5
20180821035144 68 124 0.0 1.0 0.00 0.00 0.00 91 1021.4
20180821034144 68 124 0.0 0.0 0.00 0.00 0.00 91 1021.3
20180821033143 68 124 0.0 0.0 0.00 0.00 0.00 92 1021.2
20180821032143 68 124 0.0 0.0 0.00 0.00 0.00 93 1021.1
20180821031143 68 124 0.0 0.0 0.00 0.00 0.00 93 1021.1
20180821030145 69 124 0.0 0.0 0.00 0.00 0.00 93 1021.1
20180821025144 69 124 0.0 0.0 0.00 0.00 0.00 93 1021.0
20180821024143 69 124 0.0 0.0 0.00 0.00 0.00 93 1021.1
20180821023144 69 124 0.0 0.0 0.00 0.00 0.00 93 1021.2
20180821022144 69 124 0.0 0.0 0.00 0.00 0.00 93 1021.2
20180821021143 69 124 0.0 0.0 0.00 0.00 0.00 93 1021.2
20180821020144 69 124 0.0 0.0 0.00 0.00 0.00 92 1021.1
20180821015143 69 124 0.0 0.0 0.00 0.00 0.00 92 1021.1
20180821014143 69 124 0.0 0.0 0.00 0.00 0.00 92 1021.2
20180821013143 69 124 0.0 0.0 0.00 0.00 0.00 92 1021.1
20180821012143 70 124 0.0 0.0 0.00 0.00 0.00 91 1021.1
20180821011144 70 124 0.0 0.0 0.00 0.00 0.00 91 1021.0
20180821010145 70 124 0.0 0.0 0.00 0.00 0.00 91 1020.9
20180821005143 70 124 0.0 0.0 0.00 0.00 0.00 90 1020.8
20180821004143 70 124 0.0 0.0 0.00 0.00 0.00 90 1020.8
20180821003142 70 124 0.0 0.0 0.00 0.00 0.00 89 1020.7
20180821002142 71 124 0.0 0.0 0.00 0.00 0.00 88 1020.6
20180821001143 71 124 0.0 0.0 0.00 0.00 0.00 88 1020.5
20180821000143 71 124 0.0 0.0 0.00 0.00 0.00 87 1020.4
20180820235142 72 124 0.0 0.0 0.00 0.00 0.00 87 1020.2
20180820234142 72 124 0.0 0.0 0.00 0.00 0.00 86 1020.1
20180820233143 72 124 0.0 0.0 0.00 0.00 0.00 86 1020.1
20180820232142 73 124 0.0 0.0 0.00 0.00 0.00 85 1020.0
20180820231143 73 124 0.0 0.0 0.00 0.00 0.00 85 1019.9
20180820230144 73 124 0.0 0.0 0.00 0.00 0.00 84 1019.9
20180820225142 73 124 0.0 1.0 0.00 0.00 0.00 83 1019.8
20180820224142 74 124 0.0 0.0 0.00 0.00 0.00 83 1019.8
20180820223142 74 124 0.0 0.0 0.00 0.00 0.00 84 1019.8
20180820222142 74 124 0.0 0.0 0.00 0.00 0.00 85 1019.7
20180820221142 73 124 0.0 0.0 0.00 0.00 0.00 85 1019.7
20180820220144 73 124 0.0 0.0 0.00 0.00 0.00 85 1019.7
20180820215142 73 124 0.0 0.0 0.00 0.00 0.00 86 1019.8
20180820214142 73 124 0.0 0.0 0.00 0.00 0.00 86 1019.8
20180820213143 73 124 0.0 0.0 0.00 0.00 0.00 85 1019.8
20180820212143 73 124 0.0 0.0 0.00 0.00 0.00 85 1019.8
20180820211143 73 124 0.0 0.0 0.00 0.00 0.00 84 1019.7
20180820210142 74 124 0.0 0.0 0.00 0.00 0.00 84 1019.9
20180820205141 74 124 0.0 0.0 0.00 0.00 0.00 83 1020.0
20180820204141 75 124 0.0 0.0 0.00 0.00 0.00 81 1020.0
20180820203141 75 124 0.0 0.0 0.00 0.00 0.00 79 1020.0
20180820202142 75 124 0.0 0.0 0.00 0.00 0.00 78 1020.0
20180820201141 76 124 0.0 3.0 0.00 0.00 0.00 79 1020.1
20180820200143 76 134 0.0 1.0 0.00 0.00 0.00 78 1020.2
20180820195142 77 134 0.0 3.0 0.00 0.00 0.00 73 1020.2
20180820194142 77 129 1.0 2.0 0.00 0.00 0.00 74 1020.2
20180820193141 77 135 1.0 6.0 0.00 0.00 0.00 76 1020.2
20180820192142 77 93 0.0 3.0 0.00 0.00 0.00 70 1020.3
20180820191141 77 86 0.0 3.0 0.00 0.00 0.00 73 1020.2
20180820190142 77 78 0.0 2.0 0.00 0.00 0.00 68 1020.4
20180820185141 77 74 0.0 8.0 0.00 0.00 0.00 71 1020.4
20180820184141 77 92 2.0 6.0 0.00 0.00 0.00 68 1020.5
20180820183141 77 20 2.0 6.0 0.00 0.00 0.00 69 1020.6
20180820182142 77 105 3.0 8.0 0.00 0.00 0.00 66 1020.5
20180820181142 76 54 1.0 3.0 0.00 0.00 0.00 75 1020.6
20180820180143 76 32 2.0 6.0 0.00 0.00 0.00 68 1020.6
20180820175142 76 187 2.0 7.0 0.00 0.00 0.00 69 1020.5
20180820174141 76 304 2.0 7.0 0.00 0.00 0.00 71 1020.3
20180820173141 76 113 1.0 7.0 0.00 0.00 0.00 70 1020.3
20180820172141 76 256 1.0 5.0 0.00 0.00 0.00 71 1020.3
20180820171141 76 53 2.0 8.0 0.00 0.00 0.00 71 1020.4
20180820170142 76 38 2.0 10.0 0.00 0.00 0.00 71 1020.4
20180820165140 75 252 3.0 7.0 0.00 0.00 0.00 72 1020.4
20180820164141 75 71 3.0 9.0 0.00 0.00 0.00 74 1020.4
20180820163140 74 94 1.0 8.0 0.00 0.00 0.00 74 1020.4
20180820162142 74 30 1.0 15.0 0.00 0.00 0.00 74 1020.6
20180820161142 75 44 4.0 12.0 0.00 0.00 0.00 73 1020.6
20180820160142 75 161 1.0 9.0 0.00 0.00 0.00 75 1020.7
20180820155141 75 66 3.0 12.0 0.00 0.00 0.00 74 1020.7
20180820154141 75 42 3.0 10.0 0.00 0.00 0.00 72 1020.8
20180820153140 75 188 3.0 8.0 0.00 0.00 0.00 74 1020.8
20180820152140 75 96 4.0 10.0 0.00 0.00 0.00 73 1020.7
20180820151140 75 9 3.0 8.0 0.00 0.00 0.00 76 1020.8
20180820150142 74 29 2.0 5.0 0.00 0.00 0.00 78 1020.7
20180820145140 73 96 3.0 12.0 0.00 0.00 0.00 76 1020.9
20180820144141 73 42 1.0 8.0 0.00 0.00 0.00 77 1020.9
20180820143141 72 133 2.0 8.0 0.00 0.00 0.00 77 1020.9
20180820142140 72 59 6.0 13.0 0.00 0.00 0.00 76 1021.0
20180820141141 72 44 1.0 8.0 0.00 0.00 0.00 77 1020.9
20180820140142 72 181 6.0 12.0 0.00 0.00 0.00 77 1021.0
20180820135140 72 85 5.0 12.0 0.00 0.00 0.00 79 1021.0
20180820134140 71 47 3.0 10.0 0.00 0.00 0.00 79 1021.0
20180820133140 71 93 2.0 15.0 0.00 0.00 0.00 79 1021.1
20180820132139 71 34 1.0 10.0 0.00 0.00 0.00 81 1020.9
20180820131140 71 89 3.0 12.0 0.00 0.00 0.00 81 1021.1
20180820130141 70 104 2.0 12.0 0.00 0.00 0.00 82 1020.9
20180820125140 69 95 5.0 12.0 0.00 0.00 0.00 84 1020.9
20180820124140 69 53 3.0 10.0 0.00 0.00 0.00 84 1021.0
20180820123141 69 52 2.0 7.0 0.00 0.00 0.00 85 1020.9
20180820122140 68 113 1.0 8.0 0.00 0.00 0.00 86 1020.8
20180820121140 68 225 5.0 12.0 0.00 0.00 0.00 86 1020.7
20180820120141 67 267 3.0 9.0 0.00 0.00 0.00 87 1020.7
20180820115139 67 268 3.0 6.0 0.00 0.00 0.00 88 1020.5
20180820114139 66 42 1.0 8.0 0.00 0.00 0.00 88 1020.6
20180820113140 66 263 2.0 5.0 0.00 0.00 0.00 88 1020.7
20180820112140 66 22 2.0 5.0 0.00 0.00 0.00 88 1020.7
20180820111139 66 248 2.0 9.0 0.00 0.00 0.00 88 1020.5
20180820110141 66 19 1.0 5.0 0.00 0.00 0.00 88 1020.3
20180820105139 65 242 0.0 2.0 0.00 0.00 0.00 89 1020.2
20180820104139 65 235 0.0 3.0 0.00 0.00 0.00 89 1020.3
20180820103140 65 240 0.0 6.0 0.00 0.00 0.00 89 1020.3
20180820102140 65 9 0.0 3.0 0.00 0.00 0.00 89 1020.2
20180820101139 65 5 0.0 1.0 0.00 0.00 0.00 89 1020.2
20180820100141 65 5 1.0 3.0 0.00 0.00 0.00 89 1020.1
20180820095139 65 290 1.0 3.0 0.00 0.00 0.00 89 1020.0
20180820094139 65 22 0.0 5.0 0.00 0.00 0.00 89 1019.9
20180820093139 65 19 0.0 5.0 0.00 0.00 0.00 89 1019.7
20180820092139 65 5 1.0 9.0 0.00 0.00 0.00 89 1019.6
20180820091139 65 53 2.0 6.0 0.00 0.00 0.00 89 1019.3
20180820090141 65 251 2.0 6.0 0.00 0.00 0.00 88 1019.2
20180820085140 66 19 3.0 7.0 0.00 0.00 0.00 87 1019.3
20180820084139 66 241 1.0 7.0 0.00 0.00 0.00 87 1019.3
20180820083138 65 250 0.0 3.0 0.00 0.00 0.00 86 1019.3
20180820082139 65 5 3.0 8.0 0.00 0.00 0.00 87 1019.3
20180820081139 65 286 2.0 6.0 0.00 0.00 0.00 86 1019.3
20180820080139 65 245 0.0 5.0 0.00 0.00 0.00 86 1019.1
20180820075138 65 0 1.0 8.0 0.00 0.00 0.00 86 1018.9
20180820074138 65 254 1.0 9.0 0.00 0.00 0.00 86 1018.9
20180820073139 66 355 1.0 6.0 0.00 0.00 0.00 85 1019.0
20180820072139 66 16 2.0 6.0 0.00 0.00 0.00 84 1019.2
20180820071139 66 259 2.0 6.0 0.00 0.00 0.00 84 1019.0
20180820070140 66 74 1.0 8.0 0.00 0.00 0.00 84 1019.0
20180820065138 66 259 2.0 7.0 0.00 0.00 0.00 84 1019.0
20180820064138 66 234 1.0 10.0 0.00 0.00 0.00 84 1019.0
20180820063138 66 279 0.0 3.0 0.00 0.00 0.00 84 1019.1
20180820062138 66 355 2.0 6.0 0.00 0.00 0.00 83 1019.0
20180820061138 66 20 1.0 6.0 0.00 0.00 0.00 83 1019.1
20180820060140 66 12 1.0 7.0 0.00 0.00 0.00 83 1019.3
20180820055139 66 248 1.0 6.0 0.00 0.00 0.00 82 1019.4
20180820054138 66 38 1.0 8.0 0.00 0.00 0.00 82 1019.5
20180820053138 66 70 3.0 8.0 0.00 0.00 0.00 82 1019.5
20180820052138 66 250 1.0 5.0 0.00 0.00 0.00 82 1019.4
20180820051138 66 5 0.0 6.0 0.00 0.00 0.00 82 1019.3
20180820050139 66 22 2.0 5.0 0.00 0.00 0.00 82 1019.3
20180820045138 66 65 0.0 7.0 0.00 0.00 0.00 82 1019.3
20180820044137 66 9 0.0 5.0 0.00 0.00 0.00 82 1019.4
20180820043137 66 0 2.0 3.0 0.00 0.00 0.00 81 1019.4